Powrót do katalogu

DMSP 5D-3 F18 DEB

AktywnySSO
NORAD 35953·DEBRIS·🇺🇸 United States

Wystrzelony Oct 18, 2009 z Vandenberg Space Force Base

Loading…

Następne Przeloty (najbliższe 24 godziny)

TLE

ŚwieżeSource: Space-Track

Epoka: Sep 14, 2026, 11:10 UTC

1 35953U 09057C   26257.46594984  .00001225  00000-0  50180-3 0  9994
2 35953  98.6593 247.1247 0002986 196.6547 324.4106 14.28995775875262

Śledź DMSP 5D-3 F18 DEB w czasie rzeczywistym z AllMySat

Download on the App Store